Temp
8 8 8 8 9 10 9 9 8 10 9 10 10 9 7 7 5 3 2 1 1 2 3 5 6 7 8 8 9 10 9 9 9 9 9 9 9 9 9 9 9 9 8 8
7 8 8 8 9 9 9 9 10 10 10 11 11 9 7 6 5 4 2 0 -0 1 2 2 3 4 6 8 8 8 8 8 8 8 8 9 9 9 9 9 9 9 8 8
7 7 8 8 8 9 9 10 10 10 11 10 9 9 7 6 4 3 1 0 1 2 2 3 3 4 5 5 5 7 9 8 8 7 7 8 8 8 8 8 8 8 8 8
7 7 6 9 9 9 9 10 10 10 10 7 5 3 4 4 2 1 2 1 1 2 3 1 0 2 3 6 7 9 8 7 7 7 7 7 7 7 7 7 7 7 7 7
6 6 7 9 8 7 7 9 7 8 8 6 4 3 1 1 -1 -2 -2 -2 -0 0 1 2 3 4 6 6 5 4 4 5 6 6 6 7 6 6 6 6 6 6 6 6
4 5 5 8 7 7 7 8 6 5 7 7 6 6 2 -0 -1 -1 1 -1 -1 -0 1 1 1 1 1 2 1 4 3 2 2 4 5 5 5 5 3 2 1 1 1 1
5 5 6 5 5 5 7 7 3 2 4 6 6 2 -2 -2 -3 -2 -1 -2 -2 -2 -1 -1 -1 -0 1 -0 0 -1 0 1 2 3 3 3 1 2 1 -1 -1 -1 -1 -1
5 5 5 3 5 5 3 2 1 0 -0 -1 -3 -3 -3 -3 -4 -3 -2 -3 -3 -3 -3 -3 -3 -3 -2 -2 -3 -2 -1 -0 0 0 1 1 1 0 -1 -2 -2 -2 -2 -2
6 6 3 1 1 -0 2 2 0 -1 -2 -2 -3 -3 -3 -4 -4 -3 -3 -4 -4 -4 -4 -4 -3 -3 -3 -4 -3 -3 -2 -1 -1 -1 -1 -2 -2 -2 -2 -2 -2 -3 -3 -3
3 3 2 0 -1 -2 -1 -1 -2 -2 -2 -2 -4 -5 -5 -4 -5 -4 -3 -4 -5 -5 -5 -4 -4 -4 -5 -5 -4 -3 -2 -2 -3 -2 -2 -2 -2 -3 -3 -4 -4 -4 -5 -5
2 1 -0 -2 -2 -3 -3 -3 -2 -2 -3 -3 -3 -4 -4 -4 -4 -4 -4 -4 -4 -5 -5 -6 -5 -5 -4 -5 -5 -4 -4 -4 -3 -3 -3 -3 -3 -4 -4 -5 -5 -5 -6 -6
1 -1 -2 -3 -4 -3 -4 -4 -5 -5 -5 -5 -5 -4 -4 -5 -5 -5 -5 -6 -5 -6 -6 -6 -5 -5 -5 -5 -5 -4 -4 -4 -4 -4 -4 -4 -5 -5 -5 -5 -5 -5 -6 -6
-2 -3 -4 -5 -5 -5 -4 -4 -5 -5 -5 -5 -6 -6 -6 -7 -8 -7 -7 -7 -6 -7 -7 -6 -6 -6 -6 -6 -5 -5 -5 -5 -5 -5 -5 -6 -6 -6 -6 -6 -6 -6 -6 -7
-3 -3 -4 -5 -6 -6 -5 -6 -5 -6 -6 -7 -7 -7 -7 -7 -8 -8 -8 -8 -8 -8 -8 -8 -7 -7 -7 -8 -7 -7 -7 -7 -6 -6 -7 -7 -7 -7 -7 -7 -7 -7 -7 -7
-4 -3 -5 -6 -7 -8 -7 -8 -8 -9 -9 -9 -10 -9 -9 -9 -8 -9 -9 -9 -9 -8 -8 -8 -8 -8 -8 -8 -8 -8 -7 -7 -8 -8 -8 -8 -8 -8 -8 -8 -8 -9 -9 -9
-5 -6 -6 -7 -8 -8 -8 -10 -10 -11 -11 -10 -10 -10 -10 -9 -10 -10 -10 -10 -9 -9 -9 -9 -9 -9 -9 -9 -9 -9 -9 -9 -9 -9 -9 -10 -10 -10 -10 -10 -10 -11 -11 -11
-5 -5 -7 -8 -9 -9 -10 -10 -11 -12 -12 -11 -11 -10 -10 -10 -10 -10 -10 -10 -10 -10 -10 -9 -9 -10 -10 -10 -10 -10 -10 -10 -11 -11 -11 -11 -11 -11 -11 -12 -12 -12 -12 -13
-7 -8 -8 -8 -9 -10 -11 -11 -11 -10 -10 -11 -11 -11 -11 -11 -11 -11 -11 -12 -12 -12 -11 -11 -11 -11 -11 -11 -11 -11 -11 -11 -11 -11 -11 -12 -12 -12 -13 -13 -13 -14 -14 -14
-9 -9 -9 -9 -10 -10 -10 -11 -11 -11 -11 -11 -11 -11 -11 -11 -12 -12 -12 -13 -12 -12 -12 -13 -12 -12 -11 -11 -11 -12 -12 -12 -12 -12 -13 -13 -13 -14 -14 -14 -15 -15 -15 -16
-10 -10 -10 -10 -10 -10 -10 -11 -11 -11 -12 -12 -11 -12 -12 -12 -12 -13 -13 -12 -12 -13 -13 -13 -13 -12 -12 -12 -12 -13 -13 -14 -14 -14 -14 -15 -15 -15 -15 -16 -16 -16 -16 -17
-10 -11 -11 -10 -11 -11 -11 -11 -11 -11 -12 -12 -12 -12 -12 -13 -13 -13 -14 -13 -14 -14 -14 -14 -14 -14 -14 -14 -14 -15 -15 -15 -15 -15 -16 -16 -16 -16 -17 -17 -17 -17 -18 -18
-11 -11 -11 -11 -11 -12 -12 -12 -12 -12 -13 -13 -13 -13 -13 -13 -14 -14 -14 -15 -15 -15 -16 -16 -15 -15 -15 -15 -16 -16 -16 -16 -16 -16 -17 -17 -17 -17 -18 -18 -18 -18 -18 -18
-12 -11 -11 -11 -11 -12 -12 -13 -13 -13 -13 -14 -14 -14 -15 -15 -16 -16 -16 -17 -17 -17 -17 -17 -17 -17 -17 -17 -17 -17 -17 -17 -17 -17 -18 -18 -18 -18 -18 -19 -19 -19 -19 -19
-11 -12 -12 -12 -12 -12 -12 -13 -13 -13 -14 -14 -14 -15 -15 -16 -16 -16 -17 -18 -18 -18 -18 -18 -18 -18 -18 -18 -18 -18 -18 -18 -18 -18 -18 -19 -19 -19 -19 -19 -19 -19 -19 -19
-11 -11 -12 -12 -12 -12 -12 -13 -13 -14 -14 -14 -15 -15 -16 -16 -16 -17 -18 -18 -18 -18 -18 -19 -19 -19 -19 -19 -19 -19 -19 -19 -19 -19 -20 -20 -20 -20 -20 -20 -20 -20 -20 -20
-11 -12 -12 -12 -12 -13 -13 -14 -14 -14 -15 -15 -16 -16 -17 -17 -17 -18 -18 -19 -19 -19 -19 -20 -20 -20 -20 -20 -20 -20 -20 -20 -20 -20 -20 -20 -20 -20 -20 -20 -20 -20 -20 -20
-12 -12 -13 -13 -13 -13 -14 -14 -15 -15 -16 -16 -17 -17 -17 -18 -18 -19 -19 -19 -20 -20 -20 -20 -20 -20 -21 -21 -21 -20 -20 -20 -20 -20 -20 -20 -20 -21 -21 -21 -21 -21 -21 -21
Height
1423 1418 1420 1420 1419 1418 1419 1420 1421 1405 1406 1404 1402 1404 1408 1412 1409 1404 1405 1402 1399 1398 1398 1401 1403 1405 1407 1408 1412 1416 1419 1423 1427 1429 1432 1434 1436 1438 1441 1444 1447 1449 1451 1453
1420 1417 1419 1417 1414 1414 1413 1412 1409 1405 1401 1399 1398 1400 1407 1411 1410 1410 1410 1407 1405 1403 1403 1403 1406 1408 1409 1410 1412 1415 1418 1421 1425 1426 1428 1431 1433 1435 1437 1439 1441 1443 1446 1447
1416 1419 1416 1412 1411 1412 1411 1407 1404 1402 1398 1397 1399 1399 1402 1405 1408 1414 1413 1412 1409 1409 1409 1411 1412 1414 1414 1413 1414 1416 1415 1421 1423 1425 1426 1428 1430 1431 1433 1435 1437 1439 1440 1441
1421 1419 1421 1406 1407 1407 1408 1405 1404 1398 1399 1400 1404 1405 1406 1411 1412 1414 1415 1416 1414 1415 1416 1418 1419 1418 1418 1416 1415 1417 1421 1425 1424 1425 1424 1426 1426 1428 1429 1431 1432 1434 1435 1436
1420 1420 1414 1407 1409 1413 1411 1406 1409 1406 1403 1404 1404 1404 1413 1413 1416 1418 1416 1418 1419 1420 1420 1421 1421 1421 1418 1418 1422 1426 1426 1425 1425 1423 1423 1424 1424 1425 1425 1427 1428 1429 1430 1430
1432 1427 1425 1408 1412 1412 1411 1404 1411 1409 1404 1404 1405 1403 1417 1417 1418 1418 1418 1421 1421 1422 1423 1423 1425 1423 1424 1425 1427 1421 1422 1425 1424 1422 1421 1422 1423 1422 1422 1424 1425 1427 1427 1426
1425 1425 1417 1417 1414 1411 1410 1413 1414 1411 1402 1400 1403 1407 1416 1418 1420 1420 1422 1425 1426 1427 1427 1427 1427 1428 1427 1426 1424 1426 1427 1426 1425 1423 1422 1422 1423 1420 1421 1423 1426 1426 1425 1425
1425 1425 1422 1419 1413 1413 1421 1419 1417 1414 1410 1410 1413 1414 1417 1421 1423 1420 1423 1428 1429 1430 1430 1431 1432 1431 1429 1426 1429 1429 1427 1426 1426 1426 1424 1423 1424 1423 1423 1424 1426 1426 1425 1425
1420 1415 1422 1424 1424 1424 1419 1419 1419 1418 1419 1415 1418 1418 1419 1424 1424 1425 1427 1432 1434 1434 1434 1435 1433 1432 1431 1431 1431 1432 1431 1428 1428 1428 1427 1426 1426 1426 1426 1427 1427 1427 1427 1427
1422 1422 1424 1427 1427 1425 1424 1423 1422 1422 1421 1420 1420 1423 1423 1423 1426 1427 1430 1434 1435 1436 1436 1435 1435 1434 1434 1436 1436 1435 1434 1432 1432 1431 1429 1429 1428 1429 1430 1430 1430 1430 1430 1431
1422 1425 1426 1430 1430 1430 1429 1427 1426 1427 1427 1426 1427 1427 1428 1429 1430 1430 1432 1435 1438 1438 1438 1438 1439 1439 1439 1440 1441 1439 1437 1435 1433 1432 1433 1433 1433 1434 1434 1434 1436 1435 1435 1435
1427 1431 1429 1436 1435 1434 1432 1432 1432 1432 1431 1431 1431 1431 1432 1433 1434 1436 1437 1439 1440 1441 1442 1441 1441 1442 1442 1443 1443 1442 1441 1438 1437 1437 1438 1439 1440 1439 1440 1440 1439 1439 1438 1437
1434 1432 1433 1437 1437 1437 1435 1436 1436 1435 1435 1435 1435 1436 1437 1437 1438 1440 1441 1442 1444 1445 1446 1445 1445 1445 1446 1446 1447 1447 1445 1443 1442 1442 1444 1444 1444 1444 1444 1443 1442 1442 1440 1440
1437 1435 1438 1440 1441 1440 1440 1439 1439 1438 1439 1439 1439 1440 1440 1441 1443 1445 1445 1446 1449 1449 1449 1449 1448 1448 1449 1450 1450 1449 1449 1446 1444 1445 1445 1446 1446 1446 1446 1446 1444 1444 1443 1441
1438 1438 1440 1442 1443 1442 1442 1442 1441 1440 1441 1442 1442 1443 1445 1445 1446 1447 1448 1450 1450 1451 1450 1451 1451 1450 1451 1451 1451 1451 1450 1447 1445 1446 1447 1447 1448 1448 1447 1447 1446 1445 1443 1442
1443 1443 1443 1443 1445 1445 1444 1444 1443 1443 1443 1444 1445 1446 1447 1448 1449 1450 1451 1452 1453 1454 1453 1452 1453 1452 1452 1453 1452 1451 1450 1448 1448 1448 1449 1449 1450 1450 1449 1447 1447 1445 1443 1442
1444 1445 1445 1446 1445 1446 1445 1445 1445 1445 1446 1447 1448 1450 1451 1451 1452 1453 1454 1454 1455 1456 1455 1456 1455 1454 1454 1454 1454 1452 1449 1449 1450 1450 1450 1450 1450 1449 1448 1448 1447 1446 1444 1443
1443 1444 1444 1445 1446 1447 1446 1446 1447 1448 1449 1450 1451 1453 1454 1455 1456 1457 1457 1457 1458 1459 1458 1457 1456 1455 1455 1455 1452 1450 1450 1450 1450 1450 1450 1450 1450 1449 1448 1448 1447 1446 1445 1445
1444 1444 1445 1445 1446 1447 1448 1448 1449 1450 1451 1454 1455 1456 1457 1457 1458 1458 1458 1459 1459 1459 1458 1458 1457 1455 1453 1451 1450 1451 1451 1450 1451 1450 1450 1450 1450 1450 1449 1449 1448 1448 1448 1447
1445 1446 1446 1446 1447 1448 1449 1451 1453 1454 1455 1457 1458 1458 1458 1459 1459 1459 1459 1460 1459 1459 1458 1457 1455 1453 1451 1450 1451 1451 1451 1451 1452 1451 1451 1451 1451 1450 1449 1449 1449 1449 1448 1447
1447 1448 1448 1449 1450 1452 1453 1455 1456 1457 1458 1459 1460 1459 1460 1460 1460 1459 1459 1459 1458 1457 1456 1455 1454 1453 1452 1452 1452 1452 1453 1453 1452 1452 1451 1451 1451 1450 1449 1448 1448 1448 1447 1445
1451 1451 1452 1454 1455 1456 1457 1458 1460 1460 1460 1461 1461 1461 1461 1460 1459 1459 1458 1458 1457 1456 1455 1455 1454 1453 1452 1452 1452 1453 1452 1452 1451 1451 1451 1450 1449 1448 1448 1447 1446 1446 1445 1443
1454 1455 1456 1457 1458 1459 1460 1461 1461 1462 1462 1462 1462 1461 1460 1460 1459 1458 1458 1457 1456 1456 1455 1455 1453 1452 1452 1452 1452 1451 1451 1450 1450 1449 1449 1448 1447 1447 1446 1445 1444 1443 1441 1439
1458 1459 1460 1460 1461 1462 1462 1463 1463 1463 1463 1463 1462 1462 1461 1459 1458 1457 1457 1456 1456 1456 1455 1454 1453 1452 1451 1450 1450 1449 1449 1448 1447 1447 1446 1445 1445 1444 1443 1442 1440 1438 1437 1435
1460 1461 1462 1463 1463 1464 1464 1464 1464 1464 1464 1463 1462 1461 1460 1459 1458 1458 1457 1457 1456 1455 1454 1453 1452 1451 1450 1449 1449 1448 1447 1446 1445 1444 1444 1443 1442 1441 1439 1437 1436 1434 1433 1431
1462 1463 1463 1463 1464 1463 1463 1463 1463 1463 1463 1462 1461 1461 1460 1459 1458 1457 1456 1455 1455 1454 1453 1452 1452 1451 1449 1448 1447 1446 1445 1444 1443 1442 1441 1440 1439 1437 1435 1434 1432 1430 1429 1427
1463 1463 1463 1463 1463 1462 1462 1461 1461 1461 1461 1460 1460 1459 1458 1458 1457 1456 1456 1455 1454 1453 1452 1451 1449 1448 1447 1446 1445 1444 1442 1441 1440 1439 1438 1436 1434 1433 1431 1430 1428 1426 1425 1423
Wind_Speed
6 4 4 2 6 8 8 9 5 5 6 9 6 8 5 7 12 18 18 21 24 25 25 23 22 20 19 18 13 12 12 10 10 10 10 9 8 9 9 10 11 12 14 16
3 6 1 4 9 5 6 9 13 15 16 9 14 12 17 9 12 14 16 18 20 22 23 22 19 18 18 18 18 12 10 9 7 7 9 12 12 12 12 12 13 15 17 20
1 3 7 4 5 6 5 6 9 9 7 2 6 13 19 22 18 13 15 16 20 22 22 20 19 16 15 15 13 10 6 0 4 5 6 8 10 12 13 15 16 17 19 20
1 2 3 2 8 3 3 4 9 11 4 9 13 18 21 15 16 15 16 15 17 18 17 16 15 16 14 15 13 8 5 6 4 4 5 6 7 9 9 10 13 15 17 19
1 2 6 3 4 4 3 5 10 8 5 9 16 16 15 15 14 16 20 18 17 15 14 13 14 13 12 11 10 11 10 8 6 5 4 3 3 3 5 7 10 12 14 16
1 2 4 0 2 10 4 6 11 13 10 9 12 5 3 14 15 17 17 14 14 13 12 11 10 10 10 11 10 13 12 11 9 9 7 6 5 4 5 3 3 2 2 4
6 4 6 5 13 6 4 3 13 15 17 13 5 10 21 19 19 18 16 13 12 11 12 12 10 8 9 11 14 14 12 11 11 10 10 9 9 9 8 8 8 7 8 8
5 5 6 12 4 2 6 6 9 14 20 22 21 25 25 20 18 18 16 13 13 13 14 13 11 10 12 14 13 12 14 14 15 15 15 13 12 11 10 10 9 11 12 12
4 1 6 9 8 7 11 9 9 11 13 21 20 21 22 20 19 18 16 14 14 13 14 14 14 13 14 15 13 12 14 18 18 18 20 19 19 19 18 17 18 19 19 21
4 5 10 11 12 11 11 15 13 13 17 20 23 19 20 18 17 17 14 14 13 13 14 16 15 15 17 14 14 14 16 19 21 22 23 23 23 23 23 24 24 23 23 23
0 8 13 19 16 12 15 17 18 16 16 17 16 16 15 16 15 14 13 12 12 14 15 16 15 15 15 14 13 14 17 19 20 21 21 22 22 22 22 22 19 20 20 18
2 6 11 9 10 11 16 16 15 16 17 15 14 16 13 15 14 14 14 14 15 16 17 18 16 16 15 14 13 13 15 17 18 18 18 17 17 17 17 16 14 14 14 14
4 15 20 16 14 13 16 15 14 15 13 13 13 12 13 16 16 16 16 16 16 16 16 15 16 16 17 15 12 12 12 14 14 13 13 12 12 11 11 11 10 9 8 8
9 15 12 3 9 12 13 13 11 12 12 12 12 11 13 15 15 15 16 15 14 13 13 13 12 13 14 13 11 11 11 11 11 10 9 9 8 8 7 6 6 6 6 6
18 14 16 14 11 11 9 8 10 12 11 11 11 12 13 15 16 15 14 12 11 10 11 10 10 12 11 10 8 8 7 8 8 8 7 6 6 5 4 4 4 4 5 4
8 11 11 12 10 9 9 9 11 12 11 11 12 13 14 14 15 13 11 10 8 9 10 9 8 9 8 7 7 7 7 8 7 6 5 4 4 3 3 4 4 4 4 6
4 6 6 8 9 9 10 10 11 12 13 14 15 15 15 14 14 13 11 9 8 7 7 5 6 6 5 5 4 5 6 5 5 4 3 3 4 4 4 5 5 5 6 7
6 6 5 6 8 10 11 11 12 13 15 15 15 14 14 12 12 10 8 7 6 5 4 5 5 5 4 4 4 5 5 4 3 3 4 4 3 4 4 4 5 5 6 6
6 7 7 7 7 10 13 13 14 16 16 14 13 12 11 9 8 7 6 4 3 3 5 5 5 5 5 5 5 4 4 3 3 3 2 3 3 3 3 3 4 4 4 4
8 8 9 11 13 14 16 16 16 16 15 11 10 10 8 7 6 5 5 2 4 5 5 5 6 6 6 5 4 4 3 2 2 2 2 2 2 2 2 2 3 3 3 4
12 14 16 18 19 19 17 15 13 14 13 10 7 7 6 6 6 5 4 3 4 4 5 5 5 4 4 3 3 2 2 1 1 1 1 1 2 2 2 3 4 5 5 5
16 17 17 16 16 17 15 13 11 10 10 8 7 7 6 5 4 4 3 3 3 3 4 5 4 4 3 3 3 2 2 1 1 2 2 2 3 4 4 5 6 6 7 7
16 16 15 14 12 12 11 9 9 8 8 8 9 9 7 7 5 5 3 4 4 4 5 5 5 5 4 4 3 3 3 3 3 3 3 4 5 5 6 7 7 7 7 8
13 12 11 11 10 9 7 7 6 6 6 6 7 9 9 7 6 5 5 5 4 5 6 6 6 6 5 5 5 5 5 5 5 5 6 7 7 7 8 8 9 9 9 9
10 9 9 7 6 5 4 3 2 3 3 5 6 8 9 8 6 4 4 4 5 5 6 7 6 6 6 6 6 7 7 7 7 7 7 7 8 8 9 10 11 11 11 11
5 3 2 2 3 3 4 4 4 4 5 6 6 8 7 6 5 4 5 5 5 5 6 6 6 6 7 7 8 8 10 10 9 9 9 10 10 11 12 12 12 12 12 12
2 1 0 2 4 5 5 5 6 7 7 7 8 8 6 5 4 3 4 5 5 6 6 8 9 9 9 9 10 10 11 11 10 10 11 12 12 12 12 13 13 14 14 14
Wind_Direction
261 155 162 214 257 282 249 240 227 264 267 259 238 224 56 68 68 65 53 57 65 80 90 99 106 110 116 124 139 167 175 193 213 220 232 234 232 231 241 248 250 252 251 251
187 133 213 263 270 293 267 252 250 259 278 288 272 152 128 113 81 69 62 63 65 69 72 75 83 91 98 107 116 119 146 165 197 220 225 227 230 231 231 242 251 259 264 263
262 347 317 258 165 323 272 270 277 269 279 269 181 165 158 149 120 97 84 65 64 66 69 71 75 84 93 95 95 107 85 168 187 198 206 213 223 228 234 241 247 251 255 260
236 325 233 92 317 208 264 272 321 298 297 64 95 58 80 91 112 109 95 81 78 71 70 71 74 76 78 81 89 102 140 168 177 196 204 217 222 229 234 239 241 241 243 246
10 264 320 307 58 33 351 313 18 6 34 129 126 97 59 98 94 105 98 86 75 74 73 72 73 73 83 88 94 115 106 103 115 118 126 153 181 192 212 233 244 249 251 254
116 247 252 10 6 327 275 275 0 346 314 190 183 185 103 114 106 96 103 95 92 85 76 72 60 63 76 89 76 74 68 65 67 72 80 87 94 90 81 64 56 31 345 310
217 242 273 355 320 315 254 335 354 352 328 213 186 98 119 115 104 103 100 85 81 84 83 84 76 71 75 76 69 64 68 68 68 72 75 75 73 71 70 69 63 57 47 36
200 218 249 356 352 10 326 18 32 43 63 83 99 108 116 107 95 90 86 77 70 70 73 76 78 73 75 72 73 69 65 71 69 71 79 87 85 89 90 86 77 69 61 53
238 337 78 51 78 23 37 79 64 83 90 111 101 101 104 98 93 86 80 71 68 67 70 71 71 71 73 72 71 74 73 75 75 75 76 78 80 82 84 87 85 80 76 72
358 118 92 81 67 60 71 81 92 95 111 118 111 104 102 96 86 82 76 73 72 71 72 72 70 73 76 79 79 84 85 83 84 81 80 79 79 77 77 75 75 75 73 70
108 117 87 53 65 72 76 89 94 97 97 100 105 97 93 90 84 81 82 80 79 78 76 76 77 79 81 84 84 85 85 82 77 75 75 75 75 75 73 73 72 73 69 66
17 335 86 67 73 90 87 81 87 93 93 94 97 98 97 95 96 96 93 89 86 83 82 79 80 79 80 79 80 81 83 79 74 70 67 66 65 64 61 61 57 58 62 55
78 89 106 104 90 86 89 90 93 94 92 95 95 102 107 103 98 99 100 96 91 87 83 82 82 83 80 78 77 80 80 81 78 75 72 70 67 64 58 52 41 35 45 52
124 107 80 74 102 91 89 93 101 103 101 100 103 108 111 112 112 108 102 97 94 93 89 84 85 85 82 76 70 71 71 76 73 70 65 58 54 48 46 43 41 40 38 30
67 96 111 110 102 93 84 84 91 94 101 105 110 115 122 124 121 114 107 102 97 93 89 86 84 84 80 74 67 63 60 66 66 61 58 51 46 37 29 22 15 16 19 11
90 92 98 95 96 91 90 92 96 98 102 113 121 125 125 123 119 116 111 103 101 92 83 77 76 72 64 58 54 50 48 48 49 47 43 39 37 28 24 25 27 37 43 48
140 98 96 97 96 96 98 99 104 108 113 119 121 125 128 125 121 117 111 101 87 76 71 65 63 60 51 44 44 47 45 37 33 30 29 23 16 19 30 39 46 53 57 63
91 100 111 115 113 115 110 110 112 116 120 123 125 126 124 124 117 113 106 92 78 71 74 66 65 58 48 43 41 39 34 28 18 13 15 15 20 36 49 52 55 54 54 51
90 98 110 121 122 123 120 118 117 117 116 119 123 124 119 113 106 98 90 95 112 90 70 63 61 47 35 31 34 28 20 12 360 359 10 27 33 40 48 45 40 37 34 27
100 102 107 111 112 117 118 116 117 115 110 111 111 102 96 96 92 89 93 107 88 70 55 40 30 21 20 18 26 23 18 15 9 8 22 18 24 32 27 12 7 3 358 354
112 111 111 113 112 111 110 110 114 112 109 104 99 97 91 86 82 77 70 53 56 46 32 23 17 14 19 30 34 35 33 27 2 329 327 331 338 335 334 332 332 330 328 331
115 116 114 112 112 109 106 106 103 100 98 92 81 72 64 59 58 58 59 55 47 29 22 11 6 8 16 25 10 12 7 0 342 330 325 324 324 320 320 318 319 316 316 317
117 114 111 108 105 103 104 101 95 90 84 75 61 51 46 46 46 47 39 42 34 21 17 6 6 12 14 9 359 351 348 337 324 315 308 304 304 305 308 309 309 310 309 309
115 112 108 101 94 91 92 92 86 78 64 53 39 32 30 26 28 36 34 38 33 22 12 6 5 2 360 350 347 345 341 333 325 316 307 305 304 306 308 311 314 315 313 312
112 107 99 90 80 68 63 57 46 29 16 11 8 5 3 5 11 21 17 6 360 357 357 356 0 359 352 347 344 342 336 330 323 319 318 317 317 314 313 313 312 310 309 310
110 99 64 40 18 350 319 308 302 309 321 320 327 335 339 343 348 350 349 344 342 347 348 347 347 341 333 328 323 322 323 317 308 302 303 306 306 306 308 309 309 308 307 309
159 135 45 332 324 323 317 300 282 285 286 288 295 312 317 324 335 338 341 335 326 322 324 327 326 323 316 315 315 317 319 314 305 300 302 301 300 300 304 307 307 307 305 305